STARLINK-31137 (58686 NORAD) Tracking and Keplerian Element Data

This shows tracking and keplerian element data for the satellite.

Feedback or suggestion? Click here.




ElementValue
Catalog58686
NameSTARLINK-31137
Epoch Orbit346
Epoch Day12.91667824
Epoch Year2024
RAAN204.0812
Inclination43.0002
Eccentricity0.0001903
Argument of Perigee294.7448
Mean Anonmoly309.0852
Mean Motion15.74156407
Decay Rate-0.01710569
L11 58686U 23211V 24012.91667824 -.01710569 00000+0 -13108-1 0 9998
L22 58686 43.0002 204.0812 0001903 294.7448 309.0852 15.74156407 3462



Live tracking and technical data element details for STARLINK-31137 (NORAD 58686). STARLINK-31137 can be tracked NOW for your location showing map with azimuth and elevation plus other details from your city location.







IsCatalogInMostPopularTable: catalog: 58686, numindb: 24
Update: records affected: 1



GetName: 58686 STARLINK-31137

Hit Count: updated at: Wed, 17 Apr 2024 03:23:21 GMT